Change the Weather History Date:

Thursday, March 27, 2014

  Actual Average Record
Temperature  
Mean Temperature 54 °F 57 °F  
Max Temperature 70 °F 69 °F 84 °F (1994)
Min Temperature 37 °F 45 °F 18 °F (1955)
Degree Days  
Heating Degree Days 11    
Month to date heating degree days 350  
Since 1 July heating degree days 2831  
Growing Degree Days 4 (Base 50)    
Moisture  
Dew Point 29 °F    
Average Humidity 42    
Maximum Humidity 64    
Minimum Humidity 19    
Precipitation  
Precipitation 0.05 in 0.15 in 1.48 in (1976)
Month to date precipitation 3.48 4.36  
Year to date precipitation 10.64 13.96  
Sea Level Pressure  
Sea Level Pressure 30.20 in    
Wind  
Wind Speed 8 mph (ESE)    
Max Wind Speed 21 mph    
Max Gust Speed 30 mph    
Visibility 10 miles    
Events      
T = Trace of Precipitation, MM = Missing Value Source: NWS Daily Summary

Daily Weather History Graph

Daily Weather History Graph

Search for Another Location

Airport or City:

Trip Planner

Search our weather history database for the weather conditions in past years. The results will help you decide how hot, cold, wet, or windy it might be!

Date:

Astronomy

Mar. 27, 2014 Rise Set
Actual Time 6:37 AM CDT 7:00 PM CDT
Civil Twilight 6:12 AM CDT 7:25 PM CDT
Nautical Twilight 5:43 AM CDT 7:54 PM CDT
Astronomical Twilight 5:13 AM CDT 8:24 PM CDT
Moon 4:19 AM CDT (3/27) 3:55 PM CDT (3/27)
Length of Visible Light 13h 12m
Length of Day
12h 22m
Waning Crescent, 13% of the Moon is Illuminated
Mar 27
Waning Crescent
Mar 30
New
Apr 7
First Quarter
Apr 15
Full
Apr 22
Last Quarter

Hourly Weather History & Observations

Time (CDT) Temp. Windchill Dew Point Humidity Pressure Visibility Wind Dir Wind Speed Gust Speed Precip Events Conditions
12:53 AM 37.0 °F 33.3 °F 27.0 °F 67% 30.28 in 10.0 mi East 4.6 mph - N/A   Clear
1:53 AM 37.9 °F 35.5 °F 25.0 °F 60% 30.26 in 10.0 mi ENE 3.5 mph - N/A   Clear
2:53 AM 39.9 °F 37.8 °F 24.1 °F 53% 30.25 in 10.0 mi NE 3.5 mph - N/A   Clear
3:53 AM 39.9 °F 36.7 °F 23.0 °F 51% 30.26 in 10.0 mi East 4.6 mph - N/A   Clear
4:53 AM 39.9 °F - 24.1 °F 53% 30.28 in 10.0 mi Calm Calm - N/A   Clear
5:53 AM 39.9 °F 36.7 °F 25.0 °F 55% 30.27 in 10.0 mi NNE 4.6 mph - N/A   Clear
6:53 AM 39.9 °F 35.1 °F 24.1 °F 53% 30.29 in 10.0 mi NE 6.9 mph - N/A   Clear
7:53 AM 42.1 °F 37.7 °F 26.1 °F 53% 30.30 in 10.0 mi Variable 6.9 mph - N/A   Clear
8:53 AM 46.9 °F - 25.0 °F 42% 30.30 in 10.0 mi ENE 9.2 mph - N/A   Scattered Clouds
9:53 AM 53.1 °F - 21.9 °F 30% 30.29 in 10.0 mi SE 9.2 mph 19.6 mph N/A   Overcast
10:53 AM 57.0 °F - 21.9 °F 26% 30.28 in 10.0 mi SE 12.7 mph 21.9 mph N/A   Overcast
11:53 AM 60.1 °F - 23.0 °F 24% 30.26 in 10.0 mi Variable 6.9 mph - N/A   Mostly Cloudy
12:53 PM 64.0 °F - 25.0 °F 23% 30.23 in 10.0 mi SE 13.8 mph 21.9 mph N/A   Partly Cloudy
1:53 PM 66.9 °F - 23.0 °F 19% 30.19 in 10.0 mi SSE 11.5 mph 23.0 mph N/A   Clear
2:53 PM 69.1 °F - 26.1 °F 20% 30.15 in 10.0 mi SE 10.4 mph 18.4 mph N/A   Clear
3:53 PM 70.0 °F - 30.0 °F 23% 30.12 in 10.0 mi SSE 9.2 mph 18.4 mph N/A   Clear
4:53 PM 68.0 °F - 30.0 °F 24% 30.11 in 10.0 mi SE 9.2 mph 17.3 mph N/A   Scattered Clouds
5:53 PM 68.0 °F - 30.0 °F 24% 30.11 in 10.0 mi SSE 10.4 mph 17.3 mph N/A   Mostly Cloudy
6:53 PM 66.0 °F - 30.9 °F 27% 30.11 in 10.0 mi South 13.8 mph 19.6 mph N/A   Scattered Clouds
7:53 PM 64.9 °F - 33.1 °F 31% 30.11 in 10.0 mi SSE 8.1 mph 17.3 mph N/A   Mostly Cloudy
8:53 PM 64.0 °F - 37.9 °F 38% 30.11 in 10.0 mi SSE 13.8 mph 19.6 mph N/A   Overcast
9:53 PM 63.0 °F - 41.0 °F 45% 30.11 in 10.0 mi Variable 5.8 mph 16.1 mph N/A   Partly Cloudy
10:53 PM 63.0 °F - 45.0 °F 52% 30.10 in 10.0 mi South 10.4 mph 20.7 mph N/A   Clear
11:53 PM 62.1 °F - 46.9 °F 58% 30.10 in 10.0 mi SSE 6.9 mph 19.6 mph N/A   Mostly Cloudy